Location: Austin
(30.3000°N, 97.7500°W)
Time: 01:33:54
(UTC-05:00)

CZ-4B R/B - Pass Details

Date: 15 May 2024
Orbit: 465 x 616 km, 97.9° (Epoch: 19 May)

Event Time Altitude Azimuth Distance (km) Brightness Sun altitude
Rises 21:01:23 0° 175° (S) 2,484 5.8 -9.2°
Reaches altitude 10° 21:03:25 10° 179° (S) 1,620 4.9 -9.5°
Maximum altitude 21:06:49 58° 259° (W) 557 3.1 -10.2°
Drops below altitude 10° 21:10:22 10° 340° (NNW) 1,677 6.1 -10.9°
Sets 21:12:30 0° 344° (NNW) 2,584 7.0 -11.3°
